Regional Weather Roundup
Issued by NWS

Home | Current Version | Previous Version | Graphics & Text | Print | Product List | Glossary Off
Versions: 1 2 3 4 5 6 7 8 9 10 11 12 13 14 15 16 17 18 19 20 21 22 23 24 25 26 27 28 29 30 31 32 33 34 35 36 37 38 39 40 41 42 43 44 45 46 47 48 49 50

000
ASUS43 KDMX 270607
RWRIA

WEATHER ROUNDUP FOR IOWA
NATIONAL WEATHER SERVICE DES MOINES IA
100 AM CDT WED AUG 27 2014

NOTE: "FAIR" INDICATES FEW OR NO CLOUDS BELOW 12,000 FEET WITH NO
SIGNIFICANT WEATHER AND/OR OBSTRUCTIONS TO VISIBILITY.

* - THESE STATIONS ARE NOT NWS STATIONS...THUS NOT UNDER NWS
QUALITY CONTROL.  THEY ALSO DO NOT REPORT WEATHER SUCH
AS PRECIPITATION OR FOG.

IAZ001>003-012>014-020>022-031>034-043>046-270700-
   NORTHWEST IOWA

CITY           SKY/WX    TMP DP  RH WIND       PRES   REMARKS
CARROLL *      CLOUDY    64  63  94 CALM      30.15S
CHEROKEE *       N/A     59  59 100 CALM      30.16F
DENISON *      MOCLDY    64  64 100 NE3       30.14S
LE MARS *      CLEAR     61  59  94 N6        30.16F
ORANGE CITY *  CLEAR     64  57  77 E5        30.17F
SHELDON *      CLEAR     57  57 100 CALM      30.17S
SIOUX CITY     MOCLDY    64  61  90 SE3       30.15F
6HR MIN TEMP:  64; 6HR MAX TEMP:  72;

SPENCER          N/A     57  55  93 CALM      30.18S
6HR MIN TEMP:  57; 6HR MAX TEMP:  70;

STORM LAKE *   CLEAR     61  61 100 E6        30.16F
$$

IAZ055>058-069>071-079>083-090>094-270700-
   SOUTHWEST IOWA

CITY           SKY/WX    TMP DP  RH WIND       PRES   REMARKS
ATLANTIC *     CLEAR     68  66  94 CALM      30.14R
AUDUBON *      CLEAR     68  64  88 CALM      30.16S
CLARINDA *     CLEAR     68  68 100 N6        30.14S
COUNCIL BLFS * PTCLDY    68  68 100 NE6       30.13S
CRESTON *      CLEAR     66  66 100 NE6       30.16R
HARLAN  *      PTCLDY    66  66 100 CALM      30.18S
LAMONI           N/A     69  67  93 CALM      30.14R
6HR MIN TEMP:  69; 6HR MAX TEMP:  78;

RED OAK *        N/A     68  66  94 CALM      30.14R
SHENANDOAH *   PTCLDY    68  68 100 NE6       30.13R
$$

IAZ047>049-059>061-072>074-084-270700-
   CENTRAL IOWA

CITY           SKY/WX    TMP DP  RH WIND       PRES   REMARKS
AMES             N/A     65  64  97 CALM      30.15S
6HR MIN TEMP:  65; 6HR MAX TEMP:  73;

ANKENY *       PTCLDY    68  64  88 CALM      30.14S
CHARITON *     CLEAR     68  64  88 NE3       30.14S
DES MOINES     MOCLDY    72  65  78 NE7       30.13S
6HR MIN TEMP:  72; 6HR MAX TEMP:  79;

GRINNELL*      MOCLDY    66  63  88 N5        30.16S
KNOXVILLE *    CLOUDY    70  64  83 NE5       30.14R
MARSHALLTOWN     N/A     66  62  87 N6        30.15S
6HR MIN TEMP:  66; 6HR MAX TEMP:  72;

PELLA *          N/A     66  65  96 CALM      30.16S
PERRY *        MOCLDY    68  66  94 NE3       30.15S
$$

IAZ004>006-015-016-023>025-035-036-270700-
   NORTH CENTRAL IOWA

CITY           SKY/WX    TMP DP  RH WIND       PRES   REMARKS
ALGONA *       CLEAR     61  57  88 NE6       30.18R
CLARION *      CLEAR     63  61  94 E3        30.16S
ESTHERVILLE      N/A     58  55  90 N5        30.18S
6HR MIN TEMP:  56; 6HR MAX TEMP:  70;

FORT DODGE *     N/A     63  61  94 NE3       30.17S
MASON CITY       N/A     59  58  96 N5        30.19S
6HR MIN TEMP:  59; 6HR MAX TEMP:  71;

FOREST CITY *  CLEAR     59  59 100 CALM      30.18S
IOWA FALLS *   CLOUDY    66  60  81 CALM      30.18S
$$

IAZ007>011-017>019-026>030-037>042-050>054-066-270700-
   NORTHEAST IOWA

CITY           SKY/WX    TMP DP  RH WIND       PRES   REMARKS
CEDAR RAPIDS   CLOUDY    69  65  86 CALM      30.15R
6HR MIN TEMP:  68; 6HR MAX TEMP:  76;

CHARLES CITY * CLOUDY    63  59  88 NE5       30.17F
CLINTON *        N/A     68  64  88 CALM      30.16R
DECORAH *      PTCLDY    63  61  94 N5        30.16F
DUBUQUE          N/A     66  61  84 N7        30.16R
6HR MIN TEMP:  66; 6HR MAX TEMP:  75;

MONTICELLO *   CLEAR     66  63  88 N5        30.14S
OELWEIN *      CLOUDY    64  61  88 NE5       30.17S
WATERLOO         N/A     66  61  84 NE3       30.15S
6HR MIN TEMP:  66; 6HR MAX TEMP:  73;

$$

IAZ064-065-067-068-078-270700-
   EAST CENTRAL IOWA

CITY           SKY/WX    TMP DP  RH WIND       PRES   REMARKS
DAVENPORT        N/A     67  64  90 NE3       30.14R
6HR MIN TEMP:  66; 6HR MAX TEMP:  79;

IOWA CITY        N/A     72  65  78 N3        30.15R
6HR MIN TEMP:  71; 6HR MAX TEMP:  79;

MT. PLEASANT * MOCLDY    69  67  92 N6        30.13S
MUSCATINE *    MOCLDY    70  66  88 NW3       30.13S
QUAD CITIES      N/A     69  65  86 CALM      30.13R
6HR MIN TEMP:  68; 6HR MAX TEMP:  81;

$$

IAZ062-063-075>077-085>089-095>099-270700-
   SOUTHEAST IOWA

CITY           SKY/WX    TMP DP  RH WIND       PRES   REMARKS
BURLINGTON       N/A     71  68  90 NW6       30.12S
6HR MIN TEMP:  71; 6HR MAX TEMP:  80;

FAIRFIELD *    CLOUDY    68  66  94 NE5       30.14S
FORT MADISON * CLEAR     70  70 100 NW3       30.13S
KEOKUK *       PTCLDY    72  68  88 CALM      30.11S
OSKALOOSA *      N/A     66  64  94 NE3       30.15R
CENTERVILLE *  CLEAR     68  68 100 NE3       30.16R
OTTUMWA          N/A     69  65  86 NE3       30.14R
6HR MIN TEMP:  69; 6HR MAX TEMP:  79;

WASHINGTON *   PTCLDY    70  68  94 CALM      30.14S
$$

ABBREVIATIONS USED IN REMARKS
   TC - TEMPERATURES IN CELSIUS
  WCI - WIND CHILL INDEX
   HX - HEAT INDEX
  VSB - VISIBILITY
$$



USA.gov is the U.S. government's official web portal to all federal, state and local government web resources and services.